CDT,Max TemperatureF,Mean TemperatureF,Min TemperatureF,Max Dew PointF,MeanDew PointF,Min DewpointF,Max Humidity, Mean Humidity, Min Humidity, Max Sea Level PressureIn, Mean Sea Level PressureIn, Min Sea Level PressureIn, Max VisibilityMiles, Mean VisibilityMiles, Min VisibilityMiles, Max Wind SpeedMPH, Mean Wind SpeedMPH, Max Gust SpeedMPH,PrecipitationIn, CloudCover, Events, WindDirDegrees
2012-9-1,95,81,69,68,67,64,94,73,38,29.95,29.89,29.85,10,8,3,18,12,25,0.25,5,Rain,310
2012-9-2,96,80,64,70,67,63,100,77,38,29.98,29.93,29.85,10,6,0,4,0,,0.00,2,Fog,50
2012-9-3,102,87,72,70,67,64,84,55,29,29.89,29.84,29.78,10,10,10,6,3,,0.00,0,,150
2012-9-4,100,86,73,74,68,61,87,60,30,29.88,29.82,29.75,10,10,9,12,2,18,0.00,0,,207
2012-9-5,99,83,68,71,66,63,90,64,33,29.86,29.82,29.77,10,10,9,10,4,20,0.03,0,Thunderstorm,315
2012-9-6,96,84,73,71,69,64,87,66,41,29.95,29.87,29.80,10,10,10,14,3,18,0.00,0,Thunderstorm,130
2012-9-7,95,80,62,68,63,57,94,73,41,30.06,29.89,29.77,10,9,2,39,9,55,0.49,4,Rain-Thunderstorm,345
2012-9-8,80,66,54,56,51,46,93,66,31,30.19,30.11,30.06,10,10,10,13,5,22,0.00,0,,342
2012-9-9,82,66,50,54,50,46,93,66,30,30.17,30.12,30.06,10,10,10,9,2,16,0.00,0,,3
2012-9-10,86,68,52,55,51,49,90,57,30,30.17,30.10,30.01,10,10,10,7,2,,0.00,0,,144
2012-9-11,90,75,60,58,53,49,78,50,26,30.07,30.01,29.95,10,10,10,16,5,24,0.00,0,,171
2012-9-12,89,78,66,61,58,55,73,53,36,30.05,30.01,29.96,10,10,10,16,8,24,0.00,0,,164
2012-9-13,73,65,57,60,55,51,87,69,57,30.31,30.19,30.04,10,10,10,14,7,23,0.00,6,Rain,23
2012-9-14,60,56,53,57,55,52,94,92,88,30.33,30.28,30.26,10,6,2,10,7,37,0.64,8,Rain,30
2012-9-15,68,64,60,64,62,57,96,91,87,30.25,30.17,30.09,10,8,2,6,3,,0.26,8,Rain,92
2012-9-16,73,68,64,65,63,62,94,88,76,30.11,30.05,29.96,10,9,2,5,0,,0.00,7,,-1
2012-9-17,82,71,60,66,61,54,94,81,50,30.00,29.92,29.82,10,9,2,14,2,24,0.14,5,Rain-Thunderstorm,337
2012-9-18,73,60,46,53,47,43,93,65,35,30.14,30.07,30.01,10,10,10,10,5,17,0.00,1,,356
2012-9-19,82,68,53,51,49,47,80,55,32,30.07,30.01,29.92,10,10,10,17,7,26,0.00,0,,185
2012-9-20,80,66,53,55,50,44,90,56,28,30.04,29.99,29.94,10,10,10,8,3,,0.00,0,,95
2012-9-21,89,76,57,59,49,43,69,39,22,29.97,29.90,29.85,10,10,10,14,8,17,0.00,0,,335
2012-9-22,77,62,48,48,41,34,90,55,24,30.25,30.13,29.97,10,10,10,12,2,21,0.00,0,,14
2012-9-23,72,61,50,44,39,34,61,47,28,30.31,30.25,30.18,10,10,10,9,3,,0.00,1,,70
2012-9-24,81,69,57,62,53,43,67,56,43,30.17,29.99,29.84,10,10,10,15,5,24,0.00,0,,168
2012-9-25,91,80,70,62,60,58,69,54,38,29.86,29.81,29.73,10,10,10,15,9,33,0.00,1,Thunderstorm,189
2012-9-26,78,70,63,65,61,57,94,78,60,30.08,29.98,29.83,10,9,2,9,5,,0.09,4,Rain-Thunderstorm,50
2012-9-27,78,70,63,66,64,61,100,84,60,30.16,30.10,30.06,10,9,2,6,1,,0.09,4,Rain-Thunderstorm,8
2012-9-28,75,68,60,66,63,59,100,85,69,30.15,30.10,30.06,10,6,0,8,2,,0.00,4,Fog,39
2012-9-29,75,68,60,62,58,52,93,74,55,30.13,30.07,30.00,10,10,8,8,3,,0.00,4,,36
2012-9-30,73,65,57,57,52,50,87,68,44,30.01,29.94,29.88,10,10,10,6,1,,0.00,0,Rain,8